sat.trackr.live / text

‹ back to catalog

2021-091D

NORAD 49318 · 2021-091D

PAYLOAD ACTIVE UNKNOWN

§ Identity

Operator
Country
PRC
Launch date
2021-10-14
Launch site
TAISC
Launch vehicle
Mass (kg)
RCS (m²)

External: N2YO · Heavens-Above · Gunter

§ Orbital elements

Epoch: 2026-09-20T22:56:44.835072Z

Period
102.85 min
Inclination
97.4468°
Eccentricity
0.0013487
Mean motion
14.00159024 rev/d
Perigee alt
883.4 km
Apogee alt
903.1 km
Semi-major
7,271.4 km
B*
2.5560e-5
RAAN
279.0681°
Arg perigee
67.2422°
Mean anomaly
293.0171°
Rev number
26,148

§ Raw data

2021-091D1 49318U 21091D   26263.95607448  .00000006  00000+0  25560-4 0  99972 49318  97.4468 279.0681 0013487  67.2422 293.0171 14.00159024261484

JSON: /api/v1/satellites/49318 · /tle

For live sub-satellite position, see the globe view (requires WebGL).

§ Visibility from observer

Set your observer location to see the next 7 days of passes ≥ 10°. The values pass through the URL so the page stays shareable.

No JS? Fill the form by hand. The geolocation button needs JavaScript.